Wind_Speed
8 7 7 6 5 5 4 5 5 6 6 6 7 7 8 9 9 9 10 10 10 12 13 13 13 14 14 15 15 16 17 16 15 15 14 13 12 11 10 9 8 7 6
6 6 5 4 4 4 4 5 5 5 5 5 6 6 6 6 7 8 9 10 11 12 12 13 13 14 15 14 15 16 17 18 17 17 18 16 15 14 12 11 10 9 8
5 4 4 3 4 4 4 4 4 4 4 4 4 5 5 6 7 8 8 8 9 10 11 12 13 13 14 15 15 15 16 18 19 20 20 19 18 16 15 14 13 11 10
3 3 3 2 3 3 3 4 4 4 4 4 5 5 5 6 6 7 8 8 9 9 10 11 12 13 13 13 14 14 14 17 18 20 21 21 20 19 18 16 15 14 13
1 0 0 1 2 3 3 3 3 4 5 5 5 5 6 6 7 7 8 8 8 9 9 10 11 12 12 13 13 14 14 14 17 19 21 22 22 22 21 20 18 17 16
1 1 1 2 2 3 3 4 4 4 5 5 6 6 6 7 7 7 7 8 8 8 9 9 10 10 11 12 13 13 15 15 14 16 19 21 22 24 23 22 21 20 19
2 1 1 2 2 3 4 4 5 5 6 6 6 7 7 7 8 8 8 8 9 9 9 9 10 10 10 12 13 14 14 15 15 15 18 20 21 23 24 24 24 23 22
2 1 1 1 2 3 4 4 5 6 7 7 7 7 8 8 8 9 9 9 9 9 10 10 10 11 12 12 12 13 14 14 15 15 16 18 20 22 24 24 25 25 24
3 1 1 1 2 3 4 4 5 6 7 7 7 8 9 9 9 10 10 10 10 10 10 11 11 11 12 13 13 13 14 15 15 15 16 17 18 19 22 24 26 26 26
3 2 1 1 2 3 4 5 6 6 7 8 8 9 10 11 11 10 11 11 11 11 12 12 12 12 13 13 14 14 14 15 15 16 16 17 18 20 21 23 25 27 27
4 3 2 2 2 3 3 4 5 7 8 8 9 10 11 11 12 11 11 11 12 12 13 13 13 14 14 14 15 15 16 16 17 17 18 18 18 18 19 21 22 24 26
5 4 4 3 4 4 4 5 6 8 8 9 10 11 12 12 12 12 12 12 12 13 14 14 15 15 15 16 16 17 17 18 18 19 19 20 21 21 20 20 22 23 24
6 6 6 5 6 6 7 8 9 9 10 11 11 12 13 13 13 14 14 14 14 14 15 15 16 17 17 17 18 19 19 20 20 20 21 22 22 23 23 23 24 25 26
8 8 8 8 8 9 10 10 11 12 12 13 13 14 14 15 15 15 16 16 16 16 16 16 17 17 18 18 19 20 20 21 21 22 22 23 24 25 25 26 27 27 28
10 10 10 10 11 12 12 13 14 14 15 15 15 16 16 17 17 17 17 18 18 18 18 18 18 18 19 19 20 21 21 22 22 23 24 24 25 26 27 28 28 29 30
12 12 12 13 14 14 15 16 17 17 18 18 18 18 19 19 19 19 19 20 20 20 20 19 19 19 20 20 20 21 22 22 23 23 24 25 26 27 28 29 30 31 32
15 15 15 15 16 17 18 19 20 20 21 21 21 21 21 21 21 21 22 22 22 22 22 22 22 21 21 22 22 22 22 23 24 24 25 25 26 27 28 29 31 32 33
18 18 18 18 19 20 21 21 22 22 23 23 23 23 23 23 23 23 23 23 24 24 24 24 24 24 24 24 24 24 24 24 24 25 26 27 28 28 29 30 31 32 33
20 20 20 21 21 22 23 23 24 24 25 25 25 25 25 25 25 25 25 25 25 25 26 26 26 26 26 26 26 26 26 26 26 26 26 27 28 29 30 31 31 32 33
22 23 23 23 24 24 25 25 25 26 26 27 27 27 28 27 27 27 27 28 28 27 27 27 28 28 28 28 28 28 28 28 28 28 28 27 28 29 30 31 32 33 34
24 24 25 25 25 26 26 27 27 28 28 28 29 29 29 29 29 29 29 29 29 29 30 30 30 30 31 30 30 30 29 30 29 30 29 29 29 29 30 32 32 33 34
26 26 27 27 27 27 28 28 29 28 29 30 30 31 31 31 31 31 31 32 32 32 32 32 32 33 33 33 33 33 32 31 31 32 31 31 31 31 31 31 32 33 34
27 27 28 28 28 28 29 30 31 31 31 32 32 33 33 33 33 33 33 33 34 35 35 35 35 35 35 35 35 35 35 34 34 34 34 33 33 33 33 33 33 33 34
28 29 30 30 30 31 32 33 33 33 33 34 34 35 35 35 35 36 36 36 36 37 37 38 38 37 38 38 38 38 37 37 36 36 37 35 35 35 35 35 35 34 35
29 30 31 31 32 33 34 35 35 36 36 36 36 37 37 38 38 39 39 39 39 40 40 41 40 40 39 40 40 40 40 39 38 38 39 39 37 37 37 37 37 36 36
31 32 33 33 34 35 35 36 38 39 39 39 39 39 40 41 41 42 43 43 42 43 44 44 44 43 42 42 43 43 43 43 42 41 41 42 41 40 39 38 38 38 38
Wind_Direction
282 286 288 292 297 299 300 298 297 296 297 293 286 280 274 270 268 266 265 266 262 255 254 258 256 254 252 252 252 243 238 237 235 233 231 229 228 225 222 220 219 217 214
279 284 291 297 299 300 301 304 305 304 302 303 299 292 288 278 276 276 273 270 266 264 260 261 262 257 253 255 254 249 242 239 238 237 233 231 231 229 227 224 222 221 219
278 286 288 292 303 311 314 320 326 326 322 321 317 304 298 293 286 285 284 280 276 270 265 264 265 263 258 258 253 250 247 243 243 240 236 233 232 231 230 229 227 224 223
274 279 280 298 316 336 343 347 346 343 341 336 331 327 320 305 299 296 293 288 286 282 276 273 270 265 263 262 256 253 252 250 247 243 238 236 234 233 231 230 230 229 228
258 351 6 4 6 6 3 0 354 350 349 349 345 339 333 325 313 307 302 296 292 287 285 283 280 271 268 264 262 256 256 255 252 247 241 237 236 235 234 233 233 232 232
164 119 80 41 30 21 14 10 3 358 353 349 345 341 336 331 322 315 311 307 299 295 293 292 288 280 274 270 266 261 259 258 260 251 246 242 239 237 236 237 237 236 235
176 151 93 52 37 22 14 8 0 353 348 345 344 343 341 336 331 325 319 313 308 302 297 296 293 290 283 276 271 266 266 264 266 262 255 249 243 241 239 239 240 239 238
187 168 117 43 14 5 3 358 357 354 350 346 344 344 343 338 331 326 323 319 314 310 305 300 296 294 289 286 280 275 272 270 268 266 262 256 251 248 243 241 241 241 240
188 175 156 16 1 359 1 358 357 358 357 353 349 346 345 343 337 330 324 320 314 311 308 306 302 297 292 289 288 283 279 274 272 268 265 260 256 256 251 245 242 241 242
204 212 238 317 346 353 359 360 2 1 358 357 355 351 348 344 340 334 328 322 316 311 308 306 303 299 296 293 289 285 283 280 277 274 271 265 261 259 256 252 248 246 245
224 240 258 287 314 328 339 347 352 352 352 352 350 347 344 342 340 337 332 326 318 313 309 307 304 301 298 296 293 288 284 281 278 275 273 269 266 263 260 255 252 250 248
236 248 261 280 293 301 310 320 327 332 336 337 338 337 337 337 336 334 332 328 322 316 311 307 305 301 299 296 293 289 286 282 279 276 273 271 269 266 265 261 256 254 253
243 250 261 273 284 293 300 306 312 316 321 325 327 329 330 330 330 328 326 325 322 318 313 310 306 302 299 296 293 290 288 284 281 278 275 272 270 268 266 264 261 257 255
248 256 264 273 281 288 294 299 303 308 312 314 317 319 320 321 322 322 321 319 318 316 313 311 308 304 301 298 294 292 289 286 283 280 277 274 271 269 266 265 263 261 258
252 259 266 274 280 285 290 294 299 302 305 307 309 311 312 313 314 315 315 314 313 313 311 310 307 304 302 300 298 295 291 289 286 282 279 276 273 270 268 266 264 262 261
258 263 269 275 280 284 288 291 295 298 300 302 304 306 307 308 308 309 309 309 308 308 308 307 305 303 301 299 298 296 294 291 289 286 283 279 276 273 270 267 265 263 262
263 267 271 276 281 284 287 289 292 294 296 298 300 303 304 304 304 305 305 306 306 306 306 305 304 302 300 299 297 295 292 291 289 287 285 282 280 276 273 270 267 265 263
268 271 275 278 281 283 286 288 290 293 295 296 296 298 299 299 300 301 302 303 303 303 303 303 303 301 299 298 297 295 293 290 289 287 286 284 282 280 276 273 270 267 265
271 274 277 280 281 282 285 287 288 291 294 295 295 295 295 296 297 298 299 299 299 299 300 300 301 300 298 296 295 294 292 291 290 288 286 285 284 282 279 276 273 270 267
271 274 278 280 282 283 284 285 287 290 292 294 294 294 294 294 295 296 297 297 296 297 297 298 298 298 297 295 294 292 291 290 290 289 287 286 284 283 282 279 276 272 269
272 274 277 279 281 283 284 286 288 289 290 291 293 293 293 293 293 293 294 295 295 295 296 296 297 296 296 295 293 292 290 289 288 287 287 287 285 284 282 281 279 275 272
272 274 276 278 280 282 283 284 286 287 288 289 291 291 291 292 292 292 292 293 294 294 294 294 295 294 294 294 293 292 291 289 288 287 286 287 286 285 283 281 279 278 275
275 275 276 277 279 281 282 284 284 285 286 287 288 288 288 289 289 290 291 292 292 293 293 293 293 294 293 292 292 291 290 289 289 287 286 286 286 285 284 282 279 277 275
275 276 276 278 280 281 282 283 283 284 286 286 286 286 287 288 288 289 290 291 291 292 292 292 291 291 291 291 291 290 289 289 288 287 286 286 285 285 284 282 280 278 275
277 278 278 279 279 281 282 282 282 284 285 286 286 286 286 287 288 289 290 291 291 291 291 290 290 289 289 289 289 289 289 288 287 286 285 285 284 284 284 282 280 278 276
279 281 281 282 281 281 282 282 282 283 284 284 284 285 285 287 287 288 289 289 289 289 289 289 289 288 288 287 287 287 287 286 285 284 284 283 283 283 281 281 279 278 275
Height
5885 5885 5885 5884 5885 5885 5884 5884 5884 5884 5883 5883 5883 5883 5882 5883 5883 5883 5884 5884 5885 5886 5887 5888 5889 5890 5891 5892 5893 5895 5896 5898 5900 5901 5903 5905 5906 5907 5909 5910 5911 5913 5914
5883 5883 5884 5884 5884 5883 5883 5883 5882 5882 5882 5882 5882 5881 5881 5881 5882 5882 5882 5882 5883 5883 5885 5885 5886 5887 5888 5889 5891 5892 5894 5895 5897 5898 5900 5902 5904 5905 5907 5908 5910 5911 5912
5882 5882 5883 5883 5882 5882 5882 5882 5881 5881 5881 5881 5881 5880 5880 5880 5880 5880 5881 5881 5880 5881 5882 5883 5883 5884 5886 5887 5888 5889 5890 5892 5893 5895 5897 5899 5901 5903 5905 5906 5908 5909 5911
5881 5881 5882 5882 5881 5881 5881 5881 5881 5880 5880 5880 5880 5879 5879 5879 5879 5879 5879 5879 5879 5879 5880 5880 5881 5882 5883 5884 5885 5886 5887 5889 5890 5891 5893 5896 5898 5900 5902 5904 5905 5907 5909
5880 5880 5881 5881 5881 5881 5881 5880 5880 5880 5880 5879 5879 5879 5878 5878 5878 5878 5877 5877 5877 5878 5878 5878 5879 5879 5880 5881 5882 5883 5884 5885 5886 5888 5889 5892 5894 5896 5898 5900 5902 5904 5906
5880 5880 5880 5880 5880 5880 5880 5880 5880 5879 5879 5879 5878 5878 5877 5877 5877 5876 5876 5876 5876 5876 5876 5876 5876 5877 5877 5878 5879 5880 5881 5882 5883 5884 5886 5888 5890 5892 5895 5897 5899 5901 5903
5879 5880 5880 5880 5880 5880 5880 5880 5879 5879 5878 5878 5877 5877 5876 5876 5875 5875 5875 5874 5874 5874 5874 5874 5875 5874 5875 5875 5876 5877 5878 5879 5880 5881 5882 5883 5885 5888 5890 5892 5895 5897 5899
5879 5879 5880 5880 5880 5880 5879 5879 5879 5878 5878 5877 5876 5876 5876 5876 5874 5874 5873 5873 5872 5872 5872 5872 5872 5872 5872 5873 5873 5874 5874 5875 5876 5877 5878 5879 5881 5883 5885 5887 5890 5892 5894
5878 5879 5879 5879 5880 5879 5879 5879 5878 5878 5877 5876 5876 5875 5875 5874 5873 5872 5871 5871 5870 5870 5870 5869 5870 5870 5870 5870 5870 5871 5871 5872 5873 5874 5875 5876 5877 5879 5880 5882 5885 5887 5889
5878 5878 5879 5879 5879 5879 5879 5878 5878 5877 5877 5876 5875 5874 5873 5872 5872 5871 5870 5869 5868 5868 5867 5867 5867 5867 5867 5867 5867 5868 5868 5868 5869 5870 5871 5872 5873 5874 5876 5877 5879 5881 5884
5877 5878 5878 5878 5878 5878 5878 5878 5877 5877 5876 5875 5874 5873 5872 5871 5870 5869 5869 5868 5866 5866 5865 5864 5864 5864 5863 5864 5864 5864 5864 5865 5865 5866 5866 5867 5868 5869 5871 5872 5874 5876 5878
5876 5877 5877 5877 5877 5877 5877 5877 5876 5876 5875 5874 5873 5872 5871 5870 5869 5868 5867 5865 5864 5863 5862 5862 5861 5860 5860 5860 5860 5859 5860 5860 5861 5861 5862 5862 5863 5864 5866 5867 5868 5870 5872
5875 5875 5876 5876 5876 5876 5876 5875 5875 5874 5874 5873 5872 5871 5870 5868 5867 5866 5864 5863 5862 5861 5860 5859 5858 5857 5856 5856 5855 5855 5855 5855 5855 5856 5856 5857 5858 5859 5860 5861 5862 5864 5865
5873 5873 5874 5874 5874 5874 5874 5874 5873 5872 5872 5871 5870 5869 5867 5866 5865 5863 5862 5860 5859 5858 5857 5855 5854 5853 5852 5851 5851 5850 5850 5849 5849 5850 5850 5851 5851 5852 5853 5855 5856 5857 5859
5870 5871 5871 5871 5871 5871 5871 5871 5870 5870 5869 5868 5867 5866 5864 5863 5862 5860 5858 5857 5856 5854 5853 5852 5850 5849 5848 5847 5846 5845 5844 5844 5843 5844 5844 5844 5845 5845 5846 5847 5848 5850 5851
5867 5867 5868 5868 5868 5868 5868 5868 5867 5866 5865 5864 5863 5862 5861 5859 5858 5856 5855 5853 5851 5850 5849 5847 5846 5845 5843 5842 5841 5840 5839 5838 5837 5837 5837 5837 5837 5838 5838 5839 5840 5841 5843
5863 5864 5864 5864 5864 5864 5864 5863 5863 5862 5861 5860 5859 5858 5856 5855 5853 5852 5850 5848 5847 5845 5844 5842 5841 5840 5838 5837 5836 5835 5834 5833 5832 5831 5830 5830 5830 5830 5830 5831 5832 5832 5834
5859 5859 5859 5859 5859 5859 5859 5858 5858 5857 5856 5855 5853 5852 5851 5850 5848 5846 5845 5843 5842 5840 5839 5837 5835 5834 5833 5831 5830 5829 5827 5826 5826 5825 5823 5823 5822 5822 5822 5822 5823 5823 5824
5854 5854 5854 5854 5854 5853 5853 5852 5852 5851 5850 5849 5848 5846 5845 5844 5842 5840 5839 5837 5836 5834 5832 5831 5829 5828 5826 5825 5824 5822 5821 5820 5818 5817 5817 5815 5814 5814 5813 5813 5813 5814 5815
5848 5848 5848 5848 5847 5847 5847 5846 5845 5844 5844 5842 5841 5840 5838 5837 5835 5834 5832 5830 5829 5827 5826 5824 5822 5821 5819 5818 5816 5815 5814 5812 5811 5810 5809 5808 5807 5805 5804 5804 5804 5804 5804
5841 5841 5841 5841 5841 5840 5839 5839 5838 5837 5836 5835 5834 5832 5831 5829 5828 5826 5825 5823 5822 5820 5818 5817 5815 5813 5811 5809 5808 5807 5805 5804 5803 5801 5800 5799 5798 5798 5796 5795 5794 5794 5794
5834 5834 5834 5834 5833 5832 5832 5831 5830 5829 5828 5827 5826 5825 5823 5821 5820 5818 5817 5815 5813 5812 5810 5808 5806 5804 5803 5801 5799 5797 5796 5795 5794 5793 5791 5790 5789 5788 5787 5786 5785 5784 5784
5827 5827 5826 5826 5825 5824 5824 5823 5821 5821 5820 5819 5817 5816 5814 5813 5811 5809 5808 5806 5804 5802 5801 5799 5797 5795 5793 5791 5789 5788 5786 5785 5784 5782 5781 5780 5779 5778 5777 5776 5775 5774 5773
5819 5818 5818 5817 5817 5816 5815 5814 5812 5812 5811 5810 5808 5806 5805 5803 5801 5799 5798 5796 5795 5793 5790 5788 5786 5784 5782 5780 5778 5777 5775 5774 5773 5771 5769 5769 5768 5767 5766 5765 5764 5763 5763
5809 5809 5809 5808 5808 5807 5805 5804 5803 5801 5801 5799 5798 5796 5794 5793 5791 5788 5787 5785 5783 5781 5779 5776 5775 5773 5771 5769 5767 5765 5764 5762 5761 5760 5758 5757 5756 5755 5754 5753 5752 5751 5751
5800 5799 5799 5798 5797 5796 5795 5793 5792 5791 5790 5788 5787 5785 5783 5781 5779 5777 5775 5773 5771 5769 5766 5764 5762 5761 5759 5757 5754 5752 5750 5749 5748 5747 5745 5743 5743 5742 5742 5741 5739 5739 5739